Flag for Thailand Weather past 2 weeks in Phuket, Thailand

Now
75 °F

Passing clouds.


Feels Like: 75 °F
Forecast: 78 / 89 °F
Wind: No wind

Location: Phuket Airport

Current Time: Mar 2, 2015 at 4:45:27 AM

Latest Report: Mar 2, 2015 at 4:00 AM


Visibility: N/A

Pressure: 29.86 "Hg

Humidity: 89%

Dew point: 72 °F

Location of PhuketLocation

Historic Weather in Phuket — Graph

°F

Phuket temperature yesterday

Maximum temperature yesterday: 93 °F (at 3:00 PM)
Minimum temperature yesterday: 73 °F (at 2:00 AM)
Average temperature yesterday: 83 °F

Past Weeks' High & Low Weather Summary

 TemperatureHumidityPressure
High93 °F (Mar 1, 3:00 PM)100% (Feb 19, 12:00 PM)29.98 "Hg (Feb 19, 12:00 PM)
Low73 °F (Feb 15, 5:30 AM)34% (Feb 22, 3:30 PM)29.77 "Hg (Feb 15, 3:00 PM)
Average82 °F69%29.86 "Hg
* Reported Feb 15 3:00 AM — Mar 2 3:00 AM, Phuket, Weather by CustomWeather, © 2015

Note: Actual official high and low records may vary slightly from our data, if they occured in-between our weather recording intervals... More about our weather records

Advertising

Phuket weather history for previous 24 hours

 ConditionsComfort  
Time TempWeatherWind HumidityBarometerVisibility
3:00 AM
Mon, Mar 2
75 °FPassing clouds.No wind89%29.86 "HgN/A
1:30 AM75 °FPassing clouds.No wind89%29.89 "HgN/A
1:00 AM75 °FPassing clouds.No wind89%29.92 "HgN/A
12:30 AM77 °FPassing clouds.No wind89%29.92 "HgN/A
12:00 AM77 °FPassing clouds.No wind83%29.92 "HgN/A
11:30 PM
Sun, Mar 1
77 °FPassing clouds.No wind83%29.92 "HgN/A
11:00 PM77 °FPassing clouds.No wind83%29.92 "HgN/A
10:30 PM77 °FPassing clouds.No wind83%29.92 "HgN/A
10:00 PM79 °FPassing clouds.5 mph79%29.92 "HgN/A
9:30 PM79 °FPassing clouds.No wind79%29.92 "HgN/A
9:00 PM82 °FPassing clouds.6 mph70%29.89 "HgN/A
8:30 PM82 °FPassing clouds.8 mph70%29.89 "HgN/A
8:00 PM82 °FPassing clouds.7 mph70%29.86 "HgN/A
7:30 PM84 °FPassing clouds.8 mph66%29.86 "HgN/A
7:00 PM84 °FPassing clouds.9 mph70%29.83 "HgN/A
6:30 PM84 °FScattered clouds.10 mph70%29.83 "HgN/A
6:00 PM86 °FScattered clouds.9 mph66%29.83 "HgN/A
5:30 PM86 °FScattered clouds.6 mph70%29.80 "HgN/A
5:00 PM88 °FScattered clouds.6 mph66%29.77 "HgN/A
4:30 PM90 °FScattered clouds.7 mph63%29.77 "HgN/A
4:00 PM93 °FScattered clouds.8 mph41%29.77 "HgN/A
3:30 PM93 °FScattered clouds.12 mph41%29.80 "HgN/A
3:00 PM93 °FScattered clouds.12 mph44%29.80 "HgN/A
2:30 PM91 °FScattered clouds.13 mph46%29.83 "HgN/A
2:00 PM91 °FScattered clouds.10 mph46%29.83 "HgN/A
1:30 PM90 °FScattered clouds.10 mph52%29.86 "HgN/A
1:00 PM90 °FScattered clouds.9 mph49%29.86 "HgN/A
12:30 PM90 °FScattered clouds.9 mph52%29.89 "HgN/A
12:00 PM88 °FScattered clouds.10 mph52%29.89 "HgN/A
11:30 AM88 °FScattered clouds.9 mph55%29.92 "HgN/A
11:00 AM88 °FScattered clouds.10 mph55%29.92 "HgN/A
10:30 AM88 °FScattered clouds.13 mph52%29.92 "HgN/A
10:00 AM86 °FScattered clouds.13 mph59%29.92 "HgN/A
9:30 AM84 °FScattered clouds.8 mph62%29.92 "HgN/A
9:00 AM84 °FScattered clouds.6 mph62%29.92 "HgN/A
8:30 AM82 °FScattered clouds.7 mph66%29.92 "HgN/A
8:00 AM82 °FScattered clouds.5 mph70%29.89 "HgN/A
7:30 AM77 °FScattered clouds.No wind83%29.89 "HgN/A
7:00 AM73 °FScattered clouds.No wind89%29.89 "HgN/A
6:30 AM73 °FPassing clouds.No wind89%29.86 "HgN/A
5:30 AM73 °FPassing clouds.No wind94%29.83 "HgN/A
5:00 AM73 °FPassing clouds.No wind89%29.83 "HgN/A
4:30 AM73 °FPassing clouds.No wind89%29.83 "HgN/A
4:00 AM73 °FPassing clouds.No wind89%29.83 "HgN/A
Weather by CustomWeather, © 2015

See weather overviewHow to use our weather pages